This is the latest recevied weather packets stored in our database for station/object KD4EG. If no packets are shown the sender has not sent any weather packets the latest 10 day(s).
| Time | Temp. | Humidity | Pressure | Rain* | Wind** | Luminosity | Snow |
|---|---|---|---|---|---|---|---|
| 1787856726 | 22.22° C | 96% | 1017.7 hPa | 45.47 mm | - | 202 W/m² | - |
| 1787856421 | 22.22° C | 94% | 1018.2 hPa | 68.33 mm | - | 115 W/m² | - |
| 1787856116 | 22.78° C | 94% | 1018.2 hPa | 30.73 mm | - | 40 W/m² | - |
| 1787855811 | 25° C | 90% | 1017.6 hPa | 3.56 mm | - | 39 W/m² | - |
| 1787855506 | 27.78° C | 82% | 1018.2 hPa | 0 mm | - | 35 W/m² | - |
| 1787855202 | 28.89° C | 70% | 1017.9 hPa | 0 mm | - | 55 W/m² | - |
| 1787854897 | 29.44° C | 69% | 1018 hPa | 0 mm | - | 80 W/m² | - |
| 1787854591 | 30° C | 67% | 1017.7 hPa | 0 mm | - | 111 W/m² | - |
| 1787854285 | 30° C | 67% | 1017.5 hPa | 0 mm | - | 194 W/m² | - |
| 1787853981 | 30° C | 67% | 1017.6 hPa | 0 mm | - | 471 W/m² | - |
| 1787853680 | 30° C | 66% | 1017.8 hPa | 0 mm | - | 518 W/m² | - |
| 1787853374 | 29.44° C | 67% | 1017.9 hPa | 0 mm | - | 405 W/m² | - |
| 1787853068 | 29.44° C | 67% | 1017.9 hPa | 0 mm | - | 551 W/m² | - |
| 1787852763 | 29.44° C | 67% | 1017.9 hPa | 0 mm | - | 439 W/m² | - |
| 1787852462 | 30° C | 67% | 1017.9 hPa | 0 mm | - | 424 W/m² | - |
| 1787852162 | 30° C | 67% | 1017.9 hPa | 0 mm | - | 459 W/m² | - |
| 1787851857 | 30° C | 66% | 1018.1 hPa | 0 mm | - | 487 W/m² | - |
| 1787851555 | 29.44° C | 67% | 1017.6 hPa | 0 mm | - | 538 W/m² | - |
| 1787851250 | 29.44° C | 69% | 1017.9 hPa | 0 mm | - | 530 W/m² | - |
| 1787850946 | 29.44° C | 68% | 1018 hPa | 0 mm | - | 609 W/m² | - |
| 1787850642 | 29.44° C | 67% | 1018.1 hPa | 0 mm | - | 496 W/m² | - |
| 1787850337 | 28.89° C | 69% | 1018.2 hPa | 0 mm | - | 513 W/m² | - |
| 1787850027 | 29.44° C | 68% | 1017.9 hPa | 0 mm | - | 467 W/m² | - |
| 1787849726 | 29.44° C | 68% | 1018.2 hPa | 0 mm | - | 516 W/m² | - |
| 1787849421 | 28.89° C | 69% | 1018.1 hPa | 0 mm | - | 551 W/m² | - |
* Rain latest hour (hover to see other rain measurements)
** Current wind speed in m/s (hover to see current wind gust speed)